星链-5299 (STARLINK-5299 )

导读

STARLINK-5299是美国SpaceX公司星链(Starlink)互联网星座的一颗卫星,于2023年1月19日发射升空。作为星链低地球轨道星座组网的组成部分,它主要为全球无传统网络基础设施覆盖的偏远地区,提供高速低延迟的宽带互联网接入服务,目前已在轨道稳定运行,为星座的全球网络覆盖提供支撑。

基本信息
目录编号:
55277
目录名称:
STARLINK-5299
国际标识:
2023-010J
轨道中心:
EARTH
卫星名称:
星链-5299
卫星全名:
星链-5299 (STARLINK-5299 )
卫星状态:
在轨 (已飞行1332 天)
发射日期:
2023-01-19 UTC
国别 :
美国 (US)
星等 :
--
该卫星已列入 空间交会检测服务 Space Conjunction Data Service (SCDS) ,当前飞行风险评估等级: 无高风险
轨道信息
数据来源 国际轨道数据
星历时间: 2026-09-12T11:22:08+0800
9小时前
查看轨道信息
半长轴: 6950.198km
偏心率: 0.0003557
轨道倾角: 69.998°
近地点辐角 268.194°
升交点赤经 294.379°
平近点角 91.882°
近地点: 569.588km
远地点: 574.534km
周期: 96.107分钟
每日圈数: 14.983286
详细信息
固有亮度:
5
最大亮度:
2.5
卫星平台:
Starlink v1.5
覆盖范围:
全球
运营商:
太空探索技术公司
运营商所在国:
美国
制造商(研发单位):
太空探索技术公司
制造商所在国:
美国
使用方式:
暂无
卫星简介
星链(Starlink)计划是由太空探索技术公司(SpaceX)提出的一个巨型低轨卫星互联网星座项目,计划在2019年至2024年间在太空搭建由约1.2万颗卫星组成的“星链”网络,其中1584颗将部署在地球上空550千米处的近地轨道,并从2020年开始工作。该卫星仍在工作。
2D轨道图
3D轨道图
轨道高度分析图
轨道倾角分析图
轨道综合分析图
查看轨道综合分析图
与全量物体交会距离演化趋势
与全量物体交会风险概率演化趋势